Weather History for Saranac Lake, NY

Change the Weather History Date:

Saturday, January 19, 2013

  Actual Average Record
Temperature  
Mean Temperature 27 °F 13 °F  
Max Temperature 38 °F 25 °F 49 °F (1986)
Min Temperature 16 °F 1 °F -28 °F (1979)
Degree Days  
Heating Degree Days 38 52  
Month to date heating degree days 860 979  
Since 1 July heating degree days 4234 4678  
Moisture  
Dew Point 18 °F    
Average Humidity 74    
Maximum Humidity 92    
Minimum Humidity 56    
Precipitation  
Precipitation 0.01 in 0.07 in 0.23 in (1988)
Month to date precipitation 0.26 1.28  
Year to date precipitation 0.26 1.28  
Sea Level Pressure  
Sea Level Pressure 29.90 in    
Wind  
Wind Speed 12 mph (SW)    
Max Wind Speed 25 mph    
Max Gust Speed 33 mph    
Visibility 6 miles    
Events Snow    
T = Trace of Precipitation, MM = Missing Value Source: NWS Daily Summary

Daily Weather History Graph

Daily Weather History Graph

Search for Another Location

Airport:

Trip Planner

Search our weather history database for the weather conditions in past years. The results will help you decide how hot, cold, wet, or windy it might be!

Date:

Astronomy

Jan. 19, 2013 Rise Set
Actual Time 7:26 AM EST 4:48 PM EST
Civil Twilight 6:54 AM EST 5:20 PM EST
Nautical Twilight 6:19 AM EST 5:56 PM EST
Astronomical Twilight 5:44 AM EST 6:31 PM EST
Moon 11:16 AM EST (1/19) 12:55 AM EST (1/19)
Length of Visible Light 10h 25m
Length of Day
9h 21m
First Quarter, 57% of the Moon is Illuminated
Jan 19
First Quarter
Jan 26
Full
Feb 3
Last Quarter
Feb 10
New
Feb 17
First Quarter

Hourly Weather History & Observations

Time (EST) Temp. Windchill Dew Point Humidity Pressure Visibility Wind Dir Wind Speed Gust Speed Precip Events Conditions
12:17 AM 17.6 °F 3.2 °F 6.8 °F 63% 30.02 in 7.0 mi SSW 15.0 mph - 0.00 in Snow Light Snow
12:32 AM 17.6 °F 3.7 °F 8.6 °F 68% 30.01 in 2.5 mi SSW 13.8 mph - 0.00 in Snow Light Snow
12:44 AM 15.8 °F 2.7 °F 10.4 °F 79% 30.00 in 1.8 mi SSW 11.5 mph - 0.00 in Snow Light Snow
12:51 AM 17.1 °F 3.0 °F 10.0 °F 74% 30.10 in 2.0 mi SSW 13.8 mph - 0.00 in Snow Light Snow
1:06 AM 17.6 °F 3.7 °F 10.4 °F 73% 29.99 in 3.0 mi SSW 13.8 mph - 0.00 in Snow Light Snow
1:16 AM 17.6 °F 2.7 °F 12.2 °F 79% 29.99 in 2.0 mi SSW 16.1 mph - 0.00 in Snow Light Snow
1:24 AM 17.6 °F 3.2 °F 12.2 °F 79% 29.99 in 1.2 mi SSW 15.0 mph - 0.00 in Snow Light Snow
2:51 AM 18.0 °F 3.1 °F 15.1 °F 88% 30.04 in 1.0 mi SSW 16.1 mph 21.9 mph 0.00 in Snow Light Snow
2:55 AM 17.6 °F 2.7 °F 15.8 °F 93% 29.95 in 0.8 mi SW 16.1 mph 21.9 mph 0.00 in Snow Light Snow
3:44 AM 19.4 °F 6.6 °F 15.8 °F 86% 29.92 in 1.0 mi SW 12.7 mph - 0.00 in Snow Light Snow
3:51 AM 19.9 °F 7.3 °F 17.1 °F 89% 30.01 in 1.2 mi SW 12.7 mph - 0.00 in Snow Light Snow
4:02 AM 19.4 °F 6.0 °F 17.6 °F 93% 29.91 in 1.2 mi SW 13.8 mph - 0.00 in Snow Light Snow
4:25 AM 19.4 °F 5.5 °F 17.6 °F 93% 29.90 in 2.5 mi SW 15.0 mph - 0.00 in Snow Light Snow
4:41 AM 21.2 °F 8.9 °F 17.6 °F 86% 29.90 in 1.5 mi SW 12.7 mph - 0.00 in Snow Light Snow
4:51 AM 21.0 °F 8.1 °F 17.1 °F 85% 29.99 in 1.2 mi SSW 13.8 mph - 0.00 in Snow Light Snow
5:09 AM 21.2 °F 9.5 °F 17.6 °F 86% 29.89 in 2.5 mi SW 11.5 mph - 0.00 in Snow Light Snow
5:18 AM 21.2 °F 9.5 °F 17.6 °F 86% 29.89 in 3.0 mi SW 11.5 mph - 0.00 in Snow Light Snow
5:51 AM 21.9 °F 10.4 °F 18.0 °F 85% 29.98 in 2.0 mi SW 11.5 mph - 0.00 in Snow Light Snow
6:02 AM 21.2 °F 10.1 °F 17.6 °F 86% 29.88 in 1.8 mi SW 10.4 mph - 0.01 in Snow Light Snow
6:15 AM 21.2 °F 9.5 °F 19.4 °F 93% 29.88 in 1.5 mi SW 11.5 mph - 0.01 in Snow Light Snow
6:51 AM 21.9 °F 11.0 °F 19.0 °F 89% 29.96 in 2.0 mi SW 10.4 mph - 0.01 in Snow Light Snow
7:19 AM 23.0 °F 14.7 °F 19.4 °F 86% 29.86 in 3.0 mi SW 6.9 mph - 0.00 in Snow Light Snow
7:51 AM 24.1 °F 17.0 °F 18.0 °F 77% 29.94 in 10.0 mi SW 5.8 mph - 0.00 in   Overcast
8:51 AM 26.1 °F 16.8 °F 18.0 °F 71% 29.94 in 10.0 mi SW 9.2 mph - N/A   Overcast
9:51 AM 28.0 °F 18.1 °F 19.0 °F 69% 29.92 in 10.0 mi SW 11.5 mph - N/A   Overcast
10:51 AM 30.0 °F 20.0 °F 19.0 °F 64% 29.91 in 10.0 mi SW 12.7 mph - N/A   Overcast
11:51 AM 32.0 °F 20.8 °F 19.9 °F 61% 29.88 in 10.0 mi SW 17.3 mph 25.3 mph N/A   Overcast
12:51 PM 33.1 °F 22.6 °F 19.9 °F 59% 29.87 in 10.0 mi SW 16.1 mph 23.0 mph N/A   Overcast
1:51 PM 33.1 °F 24.4 °F 21.0 °F 61% 29.87 in 10.0 mi SW 11.5 mph 20.7 mph N/A   Overcast
2:51 PM 34.0 °F 25.5 °F 21.0 °F 59% 29.88 in 10.0 mi SW 11.5 mph - N/A   Overcast
3:51 PM 34.0 °F 25.5 °F 21.9 °F 61% 29.88 in 10.0 mi SW 11.5 mph - N/A   Overcast
4:51 PM 34.0 °F 25.0 °F 23.0 °F 64% 29.86 in 10.0 mi SW 12.7 mph - N/A   Overcast
5:51 PM 33.1 °F 26.1 °F 24.1 °F 70% 29.84 in 10.0 mi SSW 8.1 mph - N/A   Overcast
6:51 PM 34.0 °F 28.0 °F 23.0 °F 64% 29.83 in 10.0 mi SW 6.9 mph - N/A   Overcast
7:51 PM 33.1 °F 27.7 °F 21.9 °F 64% 29.80 in 10.0 mi SW 5.8 mph - N/A   Overcast
8:51 PM 30.9 °F 26.2 °F 21.9 °F 69% 29.76 in 10.0 mi West 4.6 mph - N/A   Mostly Cloudy
9:51 PM 36.0 °F 26.3 °F 21.9 °F 57% 29.72 in 10.0 mi SW 16.1 mph 20.7 mph N/A   Overcast
10:51 PM 35.1 °F 24.5 °F 30.0 °F 82% 29.69 in 10.0 mi SSW 18.4 mph - 0.00 in   Overcast
11:51 PM 37.0 °F 27.0 °F 27.0 °F 67% 29.64 in 10.0 mi SSW 18.4 mph - N/A   Overcast